Location: Camaret
(48.2753°N, 4.5961°W)
Time: 01:04:16
(UTC+00:00)

Cosmos 1503 Rocket - Pass Details

Date: 29 October 2020
Orbit: 752 x 791 km, 74.0° (Epoch: 26 November)

Event Time Altitude Azimuth Distance (km) Brightness Sun altitude
Rises 18:56:07 0° 335° (NNW) 3,231 7.6 -19.2°
Reaches altitude 10° 18:58:29 10° 334° (NNW) 2,306 6.8 -19.6°
Maximum altitude 19:03:42 75° 250° (WSW) 798 4.1 -20.5°
Drops below altitude 10° 19:08:57 10° 166° (SSE) 2,315 6.3 -21.3°
Enters shadow 19:10:16 - 165° (SSE) 2,827 6.8 -21.6°
